カタログに戻る

QIANFAN-66

運用中通信PO
NORAD 62796·PAYLOAD·🇨🇳 China

打ち上げ Jan 23, 2025 から Taiyuan Satellite Launch Center

Loading…

次のパス (今後24時間)

TLE

最新Source: Space-Track

元期: Sep 14, 2026, 22:33 UTC

1 62796U 25016M   26257.93997086  .00000038  00000-0  40691-4 0  9992
2 62796  88.9672  74.3623 0013170 259.8109 100.1556 13.51019572 84580

AllMySatでQIANFAN-66をリアルタイム追跡

Download on the App Store